Location: Lafig�re
(44.4503°N, 4.0357°E)
Time: 13:31:01
(UTC+00:00)

deb Explorer IX - Pass Details

Date: 26 June 2021
Orbit: 543 x 1094 km, 38.8° (Epoch: 30 July)

Event Time Altitude Azimuth Distance (km) Brightness Sun altitude
Exits shadow 02:55:34 11° 202° (SSW) 2,063 ? -9.6°
Maximum altitude 02:58:50 19° 158° (SSE) 1,481 ? -9.2°
Drops below altitude 10° 03:02:01 10° 111° (ESE) 1,922 ? -8.9°
Sets 03:04:41 0° 94° (E) 2,765 ? -8.5°
